Weather History for KLMT - January, 2012

Change the Weather History Date:

Tuesday, January 24, 2012

  Actual Average Record
Temperature  
Mean Temperature 37 °F 31 °F  
Max Temperature 44 °F 40 °F 58 °F (2014)
Min Temperature 29 °F 21 °F -7 °F (1969)
Degree Days  
Heating Degree Days 28 34  
Month to date heating degree days 800 843  
Since 1 July heating degree days 3574 3744  
Cooling Degree Days 0 0  
Month to date cooling degree days 0 0  
Year to date cooling degree days 0 0  
Moisture  
Dew Point 32 °F    
Average Humidity 91    
Maximum Humidity 100    
Minimum Humidity 76    
Precipitation  
Precipitation 0.13 in 0.05 in 0.61 in (1970)
Month to date precipitation 1.15 1.60  
Year to date precipitation 1.15 1.60  
Snow  
Snow 0.00 in - - ()
Snow Depth 2.00 in    
Sea Level Pressure  
Sea Level Pressure 30.21 in    
Wind  
Wind Speed 6 mph (South)    
Max Wind Speed 23 mph    
Max Gust Speed 28 mph    
Visibility 7 miles    
Events Rain , Snow    
T = Trace of Precipitation, MM = Missing Value Source: NWS Daily Summary

Daily Weather History Graph

Daily Weather History Graph

Search for Another Location

Airport or City:

Trip Planner

Search our weather history database for the weather conditions in past years. The results will help you decide how hot, cold, wet, or windy it might be!

Date:

Astronomy

Jan. 24, 2012 Rise Set
Actual Time 7:27 AM PST 5:10 PM PST
Civil Twilight 6:57 AM PST 5:41 PM PST
Nautical Twilight 6:23 AM PST 6:15 PM PST
Astronomical Twilight 5:50 AM PST 6:48 PM PST
Moon 7:57 AM PST (1/24) 7:10 PM PST (1/24)
Length of Visible Light 10h 43m
Length of Day
9h 43m
Waxing Crescent, 3% of the Moon is Illuminated
Jan 24
Waxing Crescent
Jan 30
First Quarter
Feb 7
Full
Feb 14
Last Quarter
Feb 21
New

Hourly Weather History & Observations

Time (PST) Temp. Windchill Dew Point Humidity Pressure Visibility Wind Dir Wind Speed Gust Speed Precip Events Conditions
12:19 AM 30.2 °F 25.4 °F 28.4 °F 93% 30.13 in 10.0 mi SSE 4.6 mph - N/A   Overcast
12:43 AM 30.2 °F 25.4 °F 26.6 °F 86% 30.12 in 10.0 mi South 4.6 mph - N/A   Overcast
12:53 AM 30.0 °F 23.2 °F 27.0 °F 88% 30.17 in 10.0 mi South 6.9 mph - N/A   Overcast
1:53 AM 30.0 °F - 28.0 °F 92% 30.20 in 10.0 mi Calm Calm - N/A   Overcast
2:53 AM 30.2 °F - 28.4 °F 93% 30.15 in 10.0 mi Calm Calm - N/A   Overcast
3:53 AM 30.0 °F - 28.0 °F 92% 30.20 in 10.0 mi Calm Calm - N/A   Overcast
4:05 AM 30.2 °F - 28.4 °F 93% 30.16 in 10.0 mi Calm Calm - N/A   Overcast
4:53 AM 30.0 °F - 28.0 °F 92% 30.21 in 10.0 mi Calm Calm - N/A   Overcast
5:37 AM 30.2 °F 26.7 °F 28.4 °F 93% 30.15 in 2.0 mi East 3.5 mph - 0.00 in Snow Light Snow
5:46 AM 30.2 °F - 28.4 °F 93% 30.18 in 1.2 mi Calm Calm - N/A Snow Light Snow
5:53 AM 28.4 °F - 28.4 °F 100% 30.19 in 1.5 mi Calm Calm - N/A Snow Light Snow
6:00 AM 30.2 °F - 28.4 °F 93% 30.17 in 2.0 mi Calm Calm - 0.00 in Snow Light Snow
6:10 AM 30.2 °F 26.7 °F 28.4 °F 93% 30.16 in 1.0 mi East 3.5 mph - 0.01 in Snow Light Snow
6:31 AM 30.2 °F - 28.4 °F 93% 30.17 in 2.0 mi Calm Calm - 0.02 in Snow Light Snow
6:53 AM 30.0 °F - 28.9 °F 96% 30.24 in 2.0 mi Calm Calm - 0.03 in Snow Light Snow
7:02 AM 28.4 °F 23.3 °F 28.4 °F 100% 30.17 in 1.5 mi SSE 4.6 mph - 0.01 in Snow Light Snow
7:47 AM 30.2 °F 20.8 °F 30.2 °F 100% 30.16 in 3.0 mi South 11.5 mph - 0.02 in Snow Light Snow
7:53 AM 30.9 °F 21.2 °F 30.0 °F 96% 30.21 in 4.0 mi South 12.7 mph - 0.02 in Snow Light Snow
8:53 AM 32.0 °F 26.4 °F 30.0 °F 92% 30.21 in 7.0 mi SSE 5.8 mph - 0.00 in Rain , Snow Light Rain
9:22 AM 32.0 °F 27.5 °F 30.2 °F 93% 30.19 in 10.0 mi South 4.6 mph - 0.00 in   Overcast
9:53 AM 32.0 °F 27.5 °F 30.9 °F 96% 30.22 in 10.0 mi ESE 4.6 mph - 0.00 in   Overcast
10:53 AM 35.1 °F - 30.9 °F 85% 30.22 in 10.0 mi Calm Calm - N/A   Overcast
11:53 AM 35.1 °F 31.0 °F 30.9 °F 85% 30.22 in 10.0 mi South 4.6 mph - N/A   Overcast
12:53 PM 37.0 °F - 32.0 °F 82% 30.20 in 10.0 mi Calm Calm - N/A   Overcast
1:53 PM 39.0 °F - 33.1 °F 79% 30.18 in 10.0 mi Calm Calm - N/A   Mostly Cloudy
2:53 PM 42.1 °F - 35.1 °F 76% 30.19 in 10.0 mi Calm Calm - N/A   Mostly Cloudy
3:53 PM 43.0 °F 37.2 °F 37.9 °F 82% 30.19 in 10.0 mi WSW 10.4 mph - N/A   Mostly Cloudy
4:53 PM 43.0 °F 34.5 °F 37.9 °F 82% 30.20 in 10.0 mi SW 19.6 mph - N/A   Mostly Cloudy
5:53 PM 42.1 °F 33.9 °F 37.9 °F 85% 30.23 in 7.0 mi SW 17.3 mph - N/A   Mostly Cloudy
6:38 PM 42.8 °F 36.2 °F 39.2 °F 87% 30.20 in 7.0 mi WSW 12.7 mph 23.0 mph 0.00 in Rain Light Rain
6:53 PM 42.1 °F 35.7 °F 39.0 °F 89% 30.22 in 7.0 mi SW 11.5 mph - 0.01 in Rain Light Rain
7:53 PM 39.0 °F 36.8 °F 37.0 °F 93% 30.26 in 7.0 mi SSE 3.5 mph - 0.00 in Rain Light Rain
8:53 PM 37.0 °F 28.1 °F 35.1 °F 93% 30.27 in 7.0 mi South 15.0 mph - 0.03 in Rain Light Rain
9:53 PM 37.0 °F 29.8 °F 35.1 °F 93% 30.30 in 7.0 mi South 10.4 mph - 0.02 in Rain Light Rain
10:15 PM 37.4 °F 28.9 °F 35.6 °F 93% 30.28 in 9.0 mi South 13.8 mph - 0.00 in Rain Light Rain
10:33 PM 37.4 °F 29.3 °F 35.6 °F 93% 30.30 in 7.0 mi South 12.7 mph - 0.01 in Rain Rain
10:53 PM 37.0 °F 31.0 °F 36.0 °F 96% 30.33 in 10.0 mi South 8.1 mph - 0.02 in Rain Light Rain
11:01 PM 37.4 °F 29.8 °F 35.6 °F 93% 30.28 in 10.0 mi South 11.5 mph - 0.00 in   Mostly Cloudy
11:33 PM 37.4 °F 29.3 °F 37.4 °F 100% 30.28 in 10.0 mi SSE 12.7 mph - 0.00 in   Mostly Cloudy
11:53 PM 37.0 °F 34.5 °F 37.0 °F 100% 30.32 in 10.0 mi Variable 3.5 mph - 0.00 in   Overcast